This is the latest recevied weather packets stored in our database for station/object EA3IK-1. If no packets are shown the sender has not sent any weather packets the latest 10 day(s).
| Time | Temp. | Humidity | Pressure | Rain* | Wind** | Luminosity | Snow |
|---|---|---|---|---|---|---|---|
| 1777429360 | 16.11° C | 47% | 1012 hPa | 0 mm | - | - | - |
| 1777428459 | 16.11° C | 46% | 1012 hPa | 0 mm | - | - | - |
| 1777427558 | 16.11° C | 46% | 1012.1 hPa | 0 mm | - | - | - |
| 1777426657 | 16.11° C | 46% | 1012.2 hPa | 0 mm | - | - | - |
| 1777425756 | 16.11° C | 48% | 1012.3 hPa | 0 mm | - | - | - |
| 1777424855 | 16.11° C | 50% | 1012.4 hPa | 0 mm | - | - | - |
| 1777423954 | 16.11° C | 51% | 1012.5 hPa | 0 mm | - | - | - |
| 1777423054 | 16.11° C | 51% | 1012.7 hPa | 0 mm | - | - | - |
| 1777422153 | 16.11° C | 50% | 1012.7 hPa | 0 mm | - | - | - |
| 1777421252 | 16.11° C | 47% | 1012.8 hPa | 0 mm | - | - | - |
| 1777420351 | 16.11° C | 44% | 1012.9 hPa | 0 mm | - | - | - |
| 1777419450 | 16.11° C | 47% | 1013 hPa | 0 mm | - | - | - |
| 1777418549 | 15.56° C | 49% | 1013.1 hPa | 0 mm | - | - | - |
| 1777417649 | 16.11° C | 47% | 1013.2 hPa | 0 mm | - | - | - |
| 1777416748 | 16.11° C | 48% | 1013.1 hPa | 0 mm | - | - | - |
| 1777415847 | 16.11° C | 51% | 1013 hPa | 0 mm | - | - | - |
| 1777414946 | 16.11° C | 53% | 1012.8 hPa | 0 mm | - | - | - |
| 1777414045 | 16.11° C | 55% | 1012.7 hPa | 0 mm | - | - | - |
| 1777413144 | 16.11° C | 56% | 1012.4 hPa | 0 mm | - | - | - |
| 1777412243 | 16.67° C | 56% | 1012 hPa | 0 mm | - | - | - |
| 1777411343 | 16.67° C | 56% | 1011.8 hPa | 0 mm | - | - | - |
| 1777410442 | 16.67° C | 57% | 1011.9 hPa | 0 mm | - | - | - |
| 1777409541 | 16.67° C | 59% | 1011.8 hPa | 0 mm | - | - | - |
| 1777408640 | 17.22° C | 61% | 1011.7 hPa | 0 mm | - | - | - |
| 1777407739 | 17.22° C | 63% | 1011.6 hPa | 0 mm | - | - | - |
* Rain latest hour (hover to see other rain measurements)
** Current wind speed in m/s (hover to see current wind gust speed)